This demonstration page uses our WeatherBlox Daily Observations layout. Learn more.

Left ArrowRight Arrow

Hourly Observations for July 4, 2021

Temp ( °F °C ) Dew Point ( °F °C ) Humidity (%) Winds ( mph kmh ) Pressure ( in mb ) Visibility ( mi km ) Precip ( " mm )
12:53 am 00:53 Clear 70 21.1 54 12.2 57 57 ENE 7 11 29.85 1011 10 16 0.00 0.00
1:53 am 01:53 Clear 69 20.6 53 11.7 57 57 ENE 8 13 29.85 1011 10 16 0.00 0.00
2:53 am 02:53 Clear 67 19.4 52 11.1 59 59 E 8 13 29.85 1011 10 16 0.00 0.00
3:53 am 03:53 Clear 67 19.4 52 11.1 59 59 E 9 15 29.84 1010 10 16 0.00 0.00
4:53 am 04:53 Clear 65 18.3 51 10.6 61 61 ENE 9 15 29.85 1011 10 16 0.00 0.00
5:53 am 05:53 Sunny 65 18.3 51 10.6 61 61 ENE 9 15 29.84 1011 10 16 0.00 0.00
6:53 am 06:53 Sunny 69 20.6 51 10.6 53 53 E 6 9 29.85 1011 10 16 0.00 0.00
7:53 am 07:53 Sunny 72 22.2 51 10.6 48 48 ENE 14 22 29.85 1011 10 16 0.00 0.00
8:53 am 08:53 Sunny 76 24.4 51 10.6 42 42 ENE 18 30 29.84 1010 10 16 0.00 0.00
9:53 am 09:53 Sunny 84 28.9 50 10 31 31 E 13 20 29.82 1010 10 16 0.00 0.00
10:53 am 10:53 Sunny 88 31.1 50 10 27 27 ESE 10 17 29.81 1009 10 16 0.00 0.00
11:53 am 11:53 Sunny 91 32.8 51 10.6 26 26 SSW 9 15 29.81 1010 10 16 0.00 0.00
12:53 pm 12:53 Sunny 92 33.3 50 10 24 24 SW 13 20 29.80 1009 10 16 0.00 0.00
1:53 pm 13:53 Sunny 93 33.9 44 6.7 18 18 VRB 6 9 29.78 1009 10 16 0.00 0.00
2:53 pm 14:53 Sunny 98 36.7 40 4.4 13 13 WSW 10 17 29.76 1008 10 16 0.00 0.00
3:53 pm 15:53 Sunny 97 36.1 39 3.9 13 13 undefined N/A 29.75 1007 10 16 0.00 0.00
4:53 pm 16:53 Sunny 98 36.7 33 0.6 10 10 SW 10 17 29.73 1007 10 16 0.00 0.00
5:53 pm 17:53 Sunny 99 37.2 32 0 9 9 WNW 12 19 29.73 1007 10 16 0.00 0.00
6:53 pm 18:53 Sunny 97 36.1 33 0.6 10 10 NW 14 22 29.73 1007 10 16 0.00 0.00
7:53 pm 19:53 Sunny 93 33.9 38 3.3 14 14 NNW 13 20 29.74 1007 10 16 0.00 0.00
8:53 pm 20:53 Sunny 88 31.1 41 5 19 19 N 9 15 29.75 1008 10 16 0.00 0.00
9:53 pm 21:53 Clear 83 28.3 43 6.1 24 24 NNW 12 19 29.77 1008 10 16 0.00 0.00
10:53 pm 22:53 Clear 80 26.7 48 8.9 33 33 N 17 28 29.78 1009 10 16 0.00 0.00
11:53 pm 23:53 Clear 74 23.3 53 11.7 48 48 NNE 10 17 29.83 1010 10 16 0.00 0.00

Powered by AerisWeather